Dewpoint
4 4 4 4 2 1 -1 -2 -2 -2 -2 -1 -1 -1 -3 -10 -17 -17 -15 -13 -11 -8 -5 -4 -3 -3 -5 -6 2 5 4 4 4 4 4 5 10 11 9 7 7 8 9
2 3 5 4 1 -1 -1 -1 -1 -1 -0 -0 -0 -0 -2 -8 -14 -16 -16 -15 -9 -3 -2 -1 -2 -4 -6 -7 -9 -8 2 5 5 2 -0 -0 5 11 10 8 9 8 8
3 4 3 -0 0 1 1 2 2 2 2 1 1 1 -1 -5 -11 -11 -12 -11 -7 -3 -0 -0 -2 -8 -11 -10 -9 -10 -10 -1 3 4 3 -1 -3 8 11 10 9 10 9
2 2 0 2 5 5 5 5 5 5 4 2 2 1 -1 -3 -7 -8 -10 -11 -9 -5 -2 -2 -5 -6 -5 -3 -3 -5 -8 -11 -4 -1 1 2 2 -1 7 10 11 11 11
3 3 4 5 6 6 6 6 6 5 4 3 2 1 0 -3 -5 -6 -9 -11 -10 -7 -4 -2 -3 -3 -0 1 1 -0 -1 -2 -1 -0 1 3 3 3 -1 6 9 10 11
5 5 5 6 7 7 7 6 5 5 4 3 2 1 0 -3 -5 -6 -8 -9 -9 -6 -6 -6 -4 -2 -0 1 2 2 2 2 2 3 3 3 4 4 4 4 6 9 10
7 7 6 7 8 8 7 6 4 3 2 2 1 1 -1 -5 -5 -5 -4 -6 -8 -6 -2 -2 -1 -1 0 -0 0 1 2 3 3 2 3 3 5 5 5 6 6 8 8
8 8 8 8 7 6 5 4 3 3 1 1 0 -2 -7 -8 -7 -4 -5 -6 -4 -2 -1 -1 -1 -1 -1 -1 -1 -0 0 0 1 2 2 1 2 3 4 6 6 7 7
8 8 7 5 5 5 5 2 2 1 -0 -4 -9 -12 -12 -10 -6 -3 -2 -1 -1 -1 -1 -1 -1 -1 -1 -1 -2 -1 -1 -1 -0 -0 1 1 2 1 2 3 5 5 6
5 4 5 6 5 5 3 1 -0 -3 -8 -7 -9 -7 -7 -5 -2 -2 -2 -2 -2 -2 -2 -2 -2 -2 -2 -1 -1 -2 -1 -1 -1 -1 -1 -0 0 1 1 1 2 4 4
5 5 5 5 5 3 -2 -5 -7 -5 -5 -5 -5 -4 -4 -4 -2 -2 -2 -3 -2 -2 -2 -2 -2 -2 -2 -2 -2 -2 -2 -2 -2 -2 -3 -3 -3 -2 -2 -0 0 2 3
4 4 2 0 -3 -4 -5 -6 -5 -6 -5 -4 -3 -3 -3 -3 -3 -3 -3 -3 -3 -3 -3 -3 -2 -2 -3 -3 -2 -2 -2 -2 -2 -3 -4 -3 -4 -3 -2 -2 -1 -1 1
-2 -3 -3 -4 -5 -6 -6 -5 -4 -3 -3 -3 -3 -3 -3 -3 -3 -3 -3 -3 -3 -3 -3 -3 -3 -3 -3 -3 -3 -3 -3 -3 -3 -3 -3 -3 -2 -1 -1 -2 -2 -1 -1
-2 -3 -3 -3 -4 -4 -3 -4 -4 -4 -3 -2 -3 -3 -3 -3 -3 -3 -3 -3 -3 -3 -3 -3 -3 -3 -3 -3 -3 -3 -3 -3 -2 -2 -3 -2 -1 -1 -1 -1 -1 0 2
-3 -3 -4 -5 -4 -4 -4 -3 -3 -3 -3 -3 -3 -3 -3 -3 -3 -2 -2 -2 -2 -2 -2 -2 -3 -3 -3 -3 -3 -3 -3 -3 -3 -2 -2 -2 -1 -1 -0 -0 -1 1 3
-4 -4 -4 -3 -3 -3 -3 -3 -3 -3 -3 -3 -3 -3 -3 -3 -3 -3 -3 -3 -3 -3 -3 -3 -3 -3 -3 -4 -3 -3 -3 -3 -3 -3 -2 -2 -2 -1 -1 -1 -0 1 3
-4 -3 -3 -3 -3 -3 -3 -3 -3 -3 -3 -3 -3 -3 -4 -4 -4 -4 -5 -5 -4 -4 -4 -4 -4 -3 -3 -3 -3 -3 -3 -3 -3 -3 -3 -3 -2 -1 -0 -1 0 0 2
-4 -5 -7 -4 -3 -3 -3 -3 -3 -3 -3 -3 -3 -3 -4 -4 -5 -5 -4 -5 -5 -5 -5 -5 -4 -4 -4 -3 -3 -3 -3 -3 -3 -3 -3 -3 -2 -2 -1 -1 -0 1 2
-8 -9 -11 -10 -5 -4 -4 -4 -4 -4 -4 -3 -3 -3 -4 -4 -4 -4 -5 -5 -5 -6 -5 -5 -5 -4 -4 -4 -3 -3 -3 -2 -2 -2 -2 -2 -2 -2 -2 -2 -1 -0 1
-7 -9 -10 -12 -10 -4 -4 -4 -4 -4 -4 -4 -4 -4 -4 -3 -4 -4 -5 -5 -5 -5 -6 -6 -6 -5 -4 -4 -3 -3 -3 -3 -2 -2 -2 -2 -2 -2 -2 -2 -2 -1 0
-6 -6 -8 -12 -12 -11 -4 -4 -4 -4 -4 -5 -4 -4 -4 -4 -4 -4 -4 -5 -5 -5 -6 -6 -6 -6 -5 -4 -4 -4 -3 -3 -3 -2 -2 -2 -2 -2 -2 -2 -2 -2 -1
-7 -12 -10 -11 -12 -12 -10 -4 -4 -4 -4 -4 -4 -4 -4 -4 -4 -4 -4 -5 -5 -5 -5 -6 -6 -6 -6 -5 -4 -4 -4 -3 -3 -2 -2 -2 -2 -2 -2 -2 -2 -1 -1
-6 -7 -14 -13 -13 -13 -13 -8 -4 -3 -4 -4 -4 -5 -5 -5 -4 -4 -4 -4 -5 -5 -5 -5 -5 -6 -6 -6 -5 -5 -5 -4 -3 -3 -3 -2 -2 -2 -2 -2 -2 -1 -1
-6 -8 -14 -16 -14 -13 -13 -13 -7 -4 -4 -4 -4 -5 -5 -5 -4 -4 -4 -4 -4 -4 -5 -5 -5 -5 -6 -6 -5 -4 -5 -5 -4 -4 -3 -2 -2 -2 -2 -2 -1 -2 -1
-9 -9 -14 -16 -16 -13 -13 -13 -11 -4 -4 -4 -4 -4 -5 -5 -4 -4 -4 -4 -4 -4 -4 -4 -5 -5 -6 -6 -6 -5 -4 -4 -4 -4 -4 -3 -2 -2 -1 -1 -1 -2 -2
-10 -11 -15 -17 -17 -14 -13 -14 -13 -5 -4 -4 -4 -4 -5 -4 -4 -4 -4 -4 -4 -4 -4 -4 -4 -5 -5 -6 -5 -5 -5 -4 -4 -4 -4 -3 -2 -2 -2 -1 -1 -2 -1
Wind_Speed
21 20 19 17 17 17 13 12 9 6 4 5 6 9 14 15 15 15 16 16 16 16 16 16 17 18 18 17 18 17 15 15 18 22 16 17 18 8 12 7 9 15 18
23 22 20 17 17 15 14 12 9 6 6 8 9 11 15 18 17 17 17 17 16 17 18 20 21 23 23 22 20 20 21 16 18 22 19 17 15 15 11 13 14 15 16
23 23 20 19 16 14 12 9 7 6 8 10 11 13 15 19 18 18 18 17 17 20 23 24 26 27 24 20 18 18 19 21 20 21 22 16 14 13 11 12 17 20 17
24 23 20 19 15 11 9 8 6 7 9 11 14 15 17 20 20 19 19 19 18 19 23 25 24 22 17 15 14 14 15 18 20 21 21 20 15 13 12 10 13 12 19
27 25 23 19 14 12 11 10 9 9 10 13 16 18 20 22 23 23 23 20 19 19 21 25 23 16 12 11 13 13 13 14 16 18 18 19 20 17 15 13 10 17 15
29 27 22 20 19 18 13 10 11 13 15 16 18 22 23 25 26 25 23 22 21 22 22 20 16 13 10 10 9 10 14 15 16 14 17 17 17 16 15 14 12 13 12
33 33 27 25 23 19 17 15 13 15 17 19 21 24 27 28 29 26 23 24 22 20 19 14 13 12 8 10 11 10 9 10 12 13 15 15 13 13 17 16 10 6 12
34 35 28 27 23 20 15 13 14 18 21 23 25 27 29 28 27 25 25 20 14 11 12 13 12 14 11 12 11 10 9 12 13 13 16 19 20 19 20 20 18 13 10
31 32 33 30 21 10 11 15 17 20 23 25 26 26 25 23 20 18 18 15 14 13 12 12 14 13 16 15 14 14 12 14 16 18 19 23 23 23 23 23 20 20 19
33 26 12 4 6 13 15 13 18 20 21 20 21 20 17 15 12 15 13 14 14 16 15 13 16 17 18 16 16 17 19 19 21 24 25 26 27 28 27 26 24 23 21
17 7 1 3 9 11 14 13 15 16 17 20 19 18 18 15 14 14 15 17 18 18 17 17 17 18 18 18 18 19 22 24 26 27 25 24 22 22 25 27 30 26 24
6 1 1 2 5 7 11 12 15 19 18 17 18 17 17 18 18 19 18 19 21 21 21 21 20 20 21 22 22 21 22 24 24 25 26 23 20 19 17 19 25 29 30
6 4 4 1 3 7 10 12 12 13 15 17 18 19 21 22 24 23 23 22 22 24 24 26 28 29 27 28 29 28 27 31 29 27 24 20 16 15 15 15 18 22 26
7 4 6 4 5 6 8 13 16 17 16 16 19 23 26 26 24 22 23 22 22 24 27 28 28 29 28 28 27 24 23 22 21 21 21 17 14 13 12 12 13 16 20
8 8 9 9 9 10 9 9 9 8 11 16 18 21 22 26 25 25 27 28 28 27 29 31 32 32 33 31 28 25 23 21 21 19 19 15 13 13 12 9 11 11 11
11 12 11 10 12 11 12 13 12 14 13 11 14 18 21 24 28 30 32 34 35 34 33 32 32 30 27 27 27 25 21 20 19 18 18 16 13 12 10 9 10 14 11
13 13 16 17 18 18 20 20 23 19 18 17 17 17 17 20 22 24 25 25 26 26 27 28 27 27 27 24 22 21 18 16 15 15 15 15 17 13 9 9 7 11 14
18 20 22 23 21 21 23 21 20 23 26 25 22 21 20 21 21 21 20 21 21 18 18 17 20 21 21 20 19 18 16 13 13 12 12 12 16 16 13 10 9 8 9
22 23 24 24 24 21 20 19 21 24 26 26 27 24 22 23 23 21 19 19 19 19 17 17 17 18 18 18 18 16 14 14 12 10 10 10 12 15 17 15 12 13 13
20 23 24 22 22 22 21 22 22 24 26 26 26 25 25 25 25 25 22 21 20 19 20 19 19 19 17 17 16 16 15 13 14 12 12 11 11 14 16 16 16 13 15
18 18 20 23 24 25 25 24 24 24 25 26 25 24 22 23 25 24 24 23 22 20 20 18 19 18 18 16 16 16 16 15 12 13 11 11 11 12 12 14 15 16 15
22 23 22 24 25 25 26 25 26 26 26 26 27 25 23 23 24 25 25 24 22 20 19 18 19 17 16 17 16 15 16 17 15 14 13 12 11 12 14 14 14 15 16
27 26 24 23 24 26 26 27 27 27 28 28 28 27 26 24 24 25 24 23 23 22 20 19 19 19 19 21 16 18 18 19 18 17 16 14 14 13 14 15 14 15 17
28 26 25 25 26 26 28 28 28 28 28 30 30 29 27 25 25 24 23 23 23 22 20 18 19 20 19 19 22 16 18 18 18 18 17 15 13 13 13 13 14 15 17
28 26 25 25 26 27 28 29 30 29 29 30 32 30 27 25 24 24 25 25 24 23 20 17 18 18 16 16 19 18 16 16 16 18 19 20 18 15 12 12 14 16 14
27 26 25 25 26 26 27 30 31 30 30 31 32 32 29 27 26 26 26 26 24 22 22 17 15 15 14 13 15 18 16 15 15 16 18 21 19 16 15 16 14 15 16
Wind_Direction
175 169 169 172 173 170 172 172 172 196 251 296 315 334 340 344 338 331 328 327 324 320 315 311 312 311 305 300 288 287 287 295 305 300 314 328 316 247 224 206 218 238 295
182 176 178 180 187 181 182 188 199 218 267 291 311 325 334 336 335 329 326 324 322 318 314 312 311 308 305 302 292 281 279 285 295 299 307 319 329 311 244 241 243 245 266
182 180 180 183 192 201 199 208 219 253 284 294 307 319 330 330 330 328 326 320 315 311 310 312 315 314 307 302 294 286 272 274 279 289 293 310 322 325 295 260 263 251 238
187 182 185 190 195 200 207 214 236 276 289 295 306 314 319 322 323 324 322 316 308 305 306 311 319 321 311 307 304 299 287 274 275 283 283 285 302 315 310 304 283 274 224
195 194 194 193 196 215 222 231 254 276 292 302 306 311 315 317 318 321 320 316 309 305 306 310 315 313 304 306 307 302 295 290 289 288 293 286 285 296 310 305 319 274 243
202 202 200 208 204 206 211 231 253 270 286 296 302 308 311 312 313 315 316 312 306 305 308 312 309 307 299 286 284 294 299 298 295 302 301 297 289 287 297 313 326 284 288
207 207 206 203 198 202 214 232 260 280 291 293 297 302 304 305 308 310 309 307 305 305 307 307 306 310 302 301 290 273 286 294 286 285 287 290 295 292 292 297 311 303 279
202 206 192 187 190 197 213 242 263 282 287 293 296 299 302 304 304 308 307 308 307 311 312 306 308 306 305 302 307 303 288 278 273 273 268 271 282 284 287 289 299 306 289
187 185 178 180 177 200 247 252 262 274 286 292 296 299 301 301 302 311 317 317 316 311 301 296 296 301 299 292 282 286 284 275 272 276 275 267 266 271 277 277 273 287 292
156 141 129 224 231 256 264 273 287 287 293 299 306 308 307 302 304 311 317 306 302 298 295 292 295 298 300 302 287 277 280 278 272 264 263 268 270 269 261 265 273 273 278
116 72 342 300 244 259 279 289 294 294 301 307 309 314 320 311 300 295 302 298 295 294 291 295 297 295 296 296 296 295 284 285 285 289 289 283 278 275 268 255 254 259 262
85 92 149 40 294 275 282 295 298 300 304 307 318 316 315 311 308 301 295 289 292 286 288 292 289 289 291 292 292 294 296 294 283 285 287 287 284 283 281 262 247 246 246
44 78 43 31 297 302 308 308 303 307 310 316 313 316 310 305 303 303 298 291 287 287 285 285 287 288 290 286 280 281 286 287 281 278 281 283 285 283 283 270 246 240 239
101 51 71 358 354 322 310 310 310 304 291 300 315 309 305 304 307 309 306 302 296 292 288 286 284 287 293 296 292 290 290 288 288 276 273 276 281 278 285 276 255 229 238
62 39 35 7 343 346 342 328 307 307 331 328 312 306 305 304 305 299 294 293 292 288 286 284 286 289 293 293 292 292 290 285 283 276 268 262 276 278 284 280 249 222 225
33 30 20 19 20 12 0 350 358 1 347 312 290 285 288 284 286 286 286 287 286 286 284 284 285 288 291 293 291 292 288 284 279 274 272 243 248 258 262 273 250 224 221
36 31 21 19 14 6 4 2 359 352 351 345 338 333 323 311 302 301 298 296 295 294 286 283 283 282 284 286 286 286 284 283 276 264 264 248 231 239 249 247 244 229 224
37 31 23 15 7 2 1 0 353 349 348 349 350 347 343 335 332 326 318 315 314 312 309 290 286 285 283 281 278 275 278 276 265 260 255 245 231 230 241 245 230 229 220
30 24 18 13 7 3 354 358 356 353 351 350 347 348 344 340 339 338 334 326 320 317 312 300 287 285 284 280 274 272 271 268 256 255 248 240 227 226 234 236 240 230 228
20 15 12 7 6 2 359 1 357 354 353 349 347 343 340 339 340 341 339 334 322 311 308 302 300 276 281 275 274 270 264 265 254 246 239 235 229 226 231 228 232 234 227
13 3 4 7 6 4 2 1 1 359 353 350 347 344 339 337 337 337 336 333 326 315 309 301 300 293 270 268 277 260 261 259 255 244 240 236 226 227 228 229 227 233 230
13 7 3 4 4 3 2 0 360 359 356 351 348 345 340 339 338 336 333 331 326 318 309 301 296 289 274 266 273 267 250 251 249 248 240 242 231 225 225 227 228 226 221
5 2 2 1 2 2 2 1 358 357 356 355 351 347 343 339 338 335 332 331 328 322 315 305 298 294 277 253 255 256 253 247 241 242 244 239 233 231 217 225 225 223 223
357 358 359 1 360 359 1 0 358 356 355 355 353 348 342 339 336 334 334 331 327 324 316 308 304 299 288 267 243 250 247 245 244 235 236 226 226 222 221 227 226 223 227
356 358 359 360 358 357 358 359 358 355 354 354 352 348 344 341 338 337 335 332 327 326 322 310 309 306 303 278 243 228 245 245 241 231 230 217 221 215 213 223 226 227 238
359 359 359 358 358 357 357 357 358 356 354 354 353 351 347 344 341 338 335 332 330 325 324 313 312 306 304 288 246 218 235 239 236 227 223 212 218 219 224 231 226 232 221
Height
1502 1505 1509 1514 1516 1517 1519 1522 1522 1525 1528 1528 1528 1528 1527 1525 1523 1521 1520 1518 1517 1515 1514 1512 1511 1509 1507 1506 1505 1504 1502 1500 1496 1491 1490 1485 1482 1479 1480 1478 1478 1479 1479
1499 1501 1508 1511 1518 1518 1518 1519 1520 1521 1524 1525 1524 1523 1524 1523 1520 1519 1517 1515 1513 1512 1510 1509 1507 1505 1503 1501 1499 1498 1497 1496 1493 1489 1486 1484 1481 1478 1478 1479 1478 1480 1479
1499 1500 1504 1510 1516 1519 1518 1518 1517 1519 1520 1521 1520 1519 1517 1520 1516 1515 1514 1512 1510 1508 1506 1505 1503 1499 1497 1495 1493 1492 1492 1491 1490 1487 1484 1484 1481 1479 1477 1476 1477 1477 1476
1498 1499 1503 1508 1513 1517 1517 1518 1518 1517 1517 1517 1516 1514 1513 1514 1513 1511 1509 1507 1505 1502 1502 1500 1498 1495 1493 1491 1489 1488 1486 1485 1484 1483 1482 1481 1480 1478 1477 1475 1474 1474 1473
1495 1498 1500 1505 1509 1516 1517 1517 1518 1515 1515 1514 1513 1511 1510 1510 1508 1505 1503 1500 1499 1497 1496 1495 1493 1492 1490 1489 1486 1485 1483 1481 1480 1479 1478 1477 1477 1476 1475 1473 1473 1472 1469
1492 1496 1498 1503 1505 1511 1515 1517 1518 1516 1513 1511 1510 1510 1507 1505 1501 1498 1496 1495 1493 1491 1490 1489 1487 1487 1487 1486 1485 1483 1482 1479 1478 1478 1476 1475 1474 1474 1474 1472 1471 1468 1464
1491 1495 1498 1501 1505 1507 1509 1510 1513 1516 1513 1509 1506 1505 1503 1500 1497 1494 1491 1488 1487 1485 1485 1484 1482 1483 1481 1483 1481 1480 1479 1477 1477 1476 1475 1473 1472 1471 1470 1469 1470 1468 1464
1485 1491 1494 1498 1501 1504 1505 1506 1505 1510 1510 1508 1505 1500 1497 1496 1492 1489 1487 1484 1481 1482 1481 1480 1479 1478 1478 1477 1476 1476 1476 1475 1474 1473 1472 1471 1469 1469 1467 1465 1464 1464 1463
1482 1487 1487 1490 1496 1501 1501 1500 1500 1501 1504 1504 1500 1496 1492 1490 1488 1485 1482 1484 1480 1479 1478 1476 1476 1474 1475 1473 1472 1473 1472 1471 1469 1468 1467 1466 1466 1465 1464 1461 1461 1460 1459
1479 1483 1487 1493 1492 1498 1500 1496 1497 1497 1499 1500 1493 1491 1489 1485 1485 1481 1479 1479 1477 1477 1475 1473 1472 1471 1470 1468 1467 1467 1467 1465 1463 1461 1461 1460 1459 1458 1459 1458 1458 1457 1457
1479 1477 1485 1486 1487 1492 1502 1492 1495 1497 1492 1491 1489 1486 1483 1483 1480 1478 1476 1474 1472 1472 1470 1468 1468 1467 1466 1464 1463 1461 1460 1459 1457 1455 1453 1452 1451 1450 1450 1451 1452 1453 1453
1482 1486 1483 1484 1493 1491 1496 1491 1491 1492 1488 1487 1480 1478 1478 1477 1475 1474 1472 1469 1468 1465 1464 1464 1463 1462 1461 1459 1458 1456 1455 1453 1450 1449 1447 1446 1445 1444 1443 1443 1444 1446 1448
1491 1487 1488 1486 1489 1491 1488 1488 1487 1486 1485 1479 1476 1471 1471 1471 1470 1467 1466 1463 1460 1458 1457 1456 1455 1455 1454 1452 1450 1450 1449 1446 1444 1442 1441 1440 1440 1439 1438 1437 1438 1440 1442
1490 1495 1482 1492 1490 1488 1486 1486 1482 1480 1481 1474 1466 1467 1466 1465 1463 1460 1458 1454 1452 1451 1449 1448 1446 1446 1445 1444 1442 1441 1440 1439 1437 1435 1435 1435 1435 1434 1434 1433 1434 1436 1438
1492 1492 1484 1488 1488 1483 1482 1483 1483 1479 1468 1462 1466 1466 1461 1459 1456 1453 1450 1447 1445 1443 1441 1439 1438 1437 1435 1434 1433 1433 1432 1432 1431 1430 1430 1430 1431 1431 1430 1431 1430 1432 1434
1491 1488 1491 1488 1487 1485 1481 1479 1474 1463 1460 1464 1464 1460 1455 1452 1448 1445 1442 1439 1436 1434 1431 1429 1428 1427 1427 1426 1425 1425 1425 1425 1425 1424 1424 1425 1427 1428 1428 1428 1428 1429 1431
1491 1494 1486 1485 1482 1482 1474 1469 1459 1462 1462 1460 1457 1452 1447 1443 1440 1437 1433 1430 1427 1425 1422 1420 1420 1419 1419 1419 1418 1418 1418 1418 1418 1418 1419 1420 1423 1424 1425 1425 1425 1425 1427
1496 1492 1485 1481 1478 1476 1470 1465 1465 1461 1456 1454 1450 1445 1442 1439 1435 1431 1427 1423 1420 1418 1415 1414 1413 1413 1413 1412 1412 1412 1413 1413 1413 1413 1414 1415 1418 1420 1421 1421 1422 1423 1425
1490 1487 1484 1481 1478 1475 1475 1469 1463 1460 1455 1449 1445 1442 1439 1435 1431 1427 1423 1419 1415 1412 1410 1409 1408 1408 1407 1407 1407 1407 1407 1407 1408 1409 1410 1411 1413 1415 1417 1418 1419 1419 1421
1493 1489 1487 1487 1483 1477 1473 1465 1462 1458 1452 1448 1444 1440 1435 1431 1427 1422 1418 1414 1411 1408 1405 1404 1402 1401 1401 1401 1401 1402 1402 1403 1403 1404 1406 1407 1409 1410 1412 1414 1416 1417 1418
1497 1497 1492 1485 1481 1476 1469 1466 1461 1456 1451 1447 1443 1439 1434 1428 1423 1418 1413 1410 1406 1402 1400 1398 1396 1395 1394 1395 1396 1396 1397 1398 1399 1400 1402 1403 1405 1406 1408 1410 1412 1413 1415
1500 1495 1489 1484 1480 1475 1471 1465 1459 1455 1450 1445 1440 1435 1430 1425 1419 1414 1409 1405 1401 1398 1395 1392 1390 1389 1389 1389 1390 1390 1391 1393 1394 1396 1398 1399 1401 1402 1404 1406 1407 1409 1411
1499 1493 1488 1484 1479 1474 1468 1463 1459 1454 1448 1443 1437 1431 1425 1420 1415 1410 1405 1400 1396 1392 1389 1387 1384 1383 1382 1382 1383 1384 1385 1386 1389 1391 1393 1395 1397 1399 1401 1402 1404 1405 1407
1498 1492 1487 1482 1477 1472 1467 1462 1457 1452 1446 1440 1434 1428 1422 1416 1411 1406 1401 1396 1392 1387 1384 1381 1379 1376 1374 1374 1375 1378 1379 1381 1383 1385 1388 1390 1392 1395 1397 1398 1400 1402 1404
1496 1491 1486 1480 1476 1471 1466 1461 1456 1450 1444 1438 1431 1425 1419 1413 1407 1402 1397 1392 1387 1382 1379 1376 1373 1370 1368 1366 1367 1370 1373 1375 1377 1379 1382 1385 1388 1390 1393 1394 1397 1398 1400
1495 1490 1485 1480 1475 1471 1465 1460 1454 1448 1442 1436 1429 1422 1415 1409 1403 1397 1392 1387 1382 1378 1374 1371 1368 1365 1363 1361 1361 1364 1367 1370 1372 1374 1376 1379 1383 1386 1389 1391 1393 1395 1397